星链-31153 (STARLINK-31153 )

导读

STARLINK-31153是美国SpaceX公司星链(Starlink)星座中的一颗低轨互联网卫星,于2024年2月25日发射入轨。星链项目旨在通过构建近地轨道卫星星座,为全球提供高速低延迟宽带互联网服务,尤其填补偏远地区、海洋等传统基础设施难以覆盖区域的网络空白。该卫星运行于约550公里高度的近地轨道,依托星链大规模组网优势,可支持民用通信、移动互联等多元应用场景,是SpaceX持续扩展星链全球覆盖能力过程中的重要组成部分。

Basic Information
目录编号:
59044
目录名称:
STARLINK-31153
国际标识:
2024-038X
轨道中心:
EARTH
卫星名称:
星链-31153
卫星全名:
星链-31153 (STARLINK-31153 )
卫星状态:
在轨 (已飞行922 天)
发射日期:
2024-02-25 UTC
国别 :
美国 (US)
星等 :
--
Orbit Information
数据来源 国际轨道数据
星历时间: 2026-09-03T23:12:08+0800
23小时前
查看轨道信息
半长轴: 6861.137km
偏心率: 0.0000998
轨道倾角: 43.005°
近地点辐角 209.670°
升交点赤经 98.526°
平近点角 150.410°
近地点: 482.315km
远地点: 483.685km
周期: 94.266分钟
每日圈数: 15.275967
Detailed Information
固有亮度:
5
最大亮度:
0.3
卫星平台:
Starlink v2.0 mini
覆盖范围:
全球
运营商:
太空探索技术公司
运营商所在国:
美国
制造商(研发单位):
太空探索技术公司
制造商所在国:
美国
使用方式:
暂无
Satellite Introduction
星链(Starlink)计划是由太空探索技术公司(SpaceX)提出的一个巨型低轨卫星互联网星座项目,计划在2019年至2024年间在太空搭建由约1.2万颗卫星组成的“星链”网络,其中1584颗将部署在地球上空550千米处的近地轨道,并从2020年开始工作。该卫星仍在工作。
2D Orbit Map
3D Orbit Map
Orbit Altitude Analysis Chart
Orbit Inclination Analysis Chart
Orbit Comprehensive Analysis Chart
View Comprehensive Chart
Conjunction Data List
Event ID Objects TCA Miss Dist (km) Collision Risk Probability Collision Risk Index (CRI) Action
CDM_260904-154205-323305-904421
2026-09-04T
15:42:33+0000
1.249 km
极远距离
1.201012E-5 中风险 0.57